Temperature
25 25 24 24 25 25 25 24 24 24 25 24 23 22 23 23 22 22 22 21 21 20 20 20 19 19 19 18 18 18 17 17 16 16 16 16 15 15 15 15 15 15 15 15
25 24 25 25 25 25 25 24 24 24 25 24 23 23 23 23 23 22 22 22 21 21 20 20 19 18 18 18 17 17 17 17 16 16 16 16 15 15 15 15 15 15 15 15
24 25 25 25 25 25 25 24 24 23 24 24 23 22 22 23 23 23 22 22 22 21 20 20 19 18 18 18 17 17 17 17 16 16 16 15 15 15 15 15 15 15 15 15
24 25 25 24 24 24 23 24 24 23 22 22 23 21 22 23 22 22 22 22 22 21 20 20 19 18 18 17 17 17 17 16 16 16 16 15 15 15 15 15 15 14 14 14
24 24 24 24 24 24 24 24 24 23 22 22 23 22 23 23 22 22 22 22 21 21 20 19 19 18 18 17 17 16 16 16 16 16 16 15 15 15 14 14 14 14 14 14
24 25 24 24 24 24 24 24 24 23 22 21 23 23 22 22 22 22 22 22 21 21 20 19 19 18 18 17 17 16 16 16 16 16 15 15 15 15 14 14 14 14 14 14
23 24 24 24 23 24 24 22 21 21 21 21 24 23 22 23 24 23 22 22 21 20 20 19 18 18 17 17 16 16 16 16 16 15 15 15 15 15 14 14 14 14 14 14
23 23 24 24 23 22 23 23 21 20 21 22 23 23 22 24 23 23 22 21 20 20 19 18 18 17 17 16 16 16 15 15 15 15 15 15 14 14 14 14 14 14 14 13
22 23 24 24 24 23 22 22 23 22 22 21 22 23 22 23 22 22 22 21 20 20 19 18 17 17 16 16 16 16 15 15 15 15 15 14 14 14 14 14 14 14 14 13
23 22 23 23 23 23 23 23 22 21 20 20 22 22 21 21 21 21 21 21 20 19 18 18 17 16 16 16 16 15 15 15 15 14 14 14 14 14 14 14 14 13 13 13
23 22 22 22 22 22 22 22 22 21 21 20 20 20 23 22 22 21 21 20 20 19 18 17 17 16 16 15 15 15 15 14 14 14 14 14 14 14 14 14 13 13 13 13
22 21 21 22 23 23 22 22 21 20 20 21 20 20 23 22 22 21 21 20 19 19 18 17 16 16 15 15 15 14 14 14 14 14 14 13 13 13 13 13 13 13 13 13
21 20 20 21 21 22 21 22 22 21 20 20 19 20 22 21 21 21 20 20 19 18 17 17 16 15 15 15 14 14 14 14 13 13 13 13 13 13 13 13 13 13 13 13
20 20 20 20 20 21 20 21 21 20 19 19 20 20 20 20 20 20 20 19 18 18 17 16 16 15 15 14 14 14 13 13 13 13 13 13 13 13 13 13 13 13 12 12
21 20 20 21 21 21 21 21 21 20 20 19 20 20 20 20 19 19 19 18 18 17 17 16 15 15 15 14 14 13 13 13 13 13 13 12 12 12 12 12 12 12 12 12
20 20 20 20 21 21 20 20 20 20 20 20 20 19 20 20 20 19 18 18 17 17 16 15 15 14 14 14 13 13 13 13 13 12 12 12 12 12 12 12 12 12 12 12
20 19 19 19 20 20 19 20 20 20 20 20 19 19 20 19 19 19 18 17 17 16 15 15 15 14 14 14 13 13 13 13 12 12 12 12 12 12 12 12 12 12 12 12
19 19 19 19 19 18 19 21 21 20 20 20 20 19 19 19 19 18 18 17 17 16 15 15 14 14 14 13 13 13 13 12 12 12 12 12 11 11 11 11 11 11 11 11
20 19 18 18 18 18 19 20 20 19 19 20 19 19 19 18 18 18 17 17 16 16 15 15 14 14 14 13 13 13 12 12 12 11 11 11 11 11 11 11 11 11 11 11
19 19 18 18 17 17 18 19 20 19 18 19 19 18 18 17 16 16 17 16 16 15 15 14 14 13 13 13 12 12 12 12 11 11 11 11 10 10 10 10 10 10 10 10
18 18 17 17 17 18 18 19 19 17 17 18 18 18 17 17 16 16 16 15 15 15 14 14 13 13 13 12 12 12 12 11 11 11 10 10 10 10 10 10 10 10 10 10
17 17 17 17 16 16 18 18 17 17 18 17 17 17 16 16 16 15 15 15 14 14 14 13 13 13 12 12 12 11 11 11 11 10 10 10 10 10 10 10 9 9 9 9
17 17 16 17 17 17 17 17 17 17 17 16 16 16 15 15 15 14 14 14 14 13 13 13 12 12 12 11 11 11 11 11 10 10 10 9 9 9 9 9 9 9 9 9
17 18 17 16 17 17 17 17 16 16 16 16 15 15 15 14 14 14 13 13 13 12 12 12 11 11 11 11 11 11 10 10 10 10 9 9 9 9 9 9 9 9 9 8
16 16 16 16 16 16 16 16 16 15 15 15 15 14 14 14 13 13 13 12 12 12 11 11 11 11 11 10 10 10 10 10 10 9 9 9 8 8 8 8 8 8 8 8
15 15 15 15 16 15 15 15 15 15 14 14 14 14 13 13 13 13 12 12 12 11 11 11 10 10 10 10 10 10 9 9 9 9 9 8 8 8 8 8 8 8 8 8
Wind_Speed
6 5 4 4 4 5 6 5 4 2 2 4 5 5 5 6 6 5 5 7 7 6 6 6 5 5 4 4 4 5 4 4 3 2 2 2 1 2 2 2 3 4 4 5
6 5 4 4 5 7 7 6 3 2 2 4 5 7 6 7 7 6 6 6 8 7 6 6 6 5 4 4 4 4 4 4 4 2 2 2 2 2 3 2 3 3 4 5
7 3 3 5 6 7 7 5 3 3 5 6 7 7 7 6 7 6 6 5 5 7 7 7 6 6 4 4 4 3 3 4 4 3 2 2 2 2 2 2 2 2 3 4
5 3 4 5 6 7 6 4 5 5 6 5 6 4 6 8 8 7 6 5 4 5 6 6 6 6 5 4 4 4 4 3 3 4 3 3 2 2 2 2 2 1 3 2
4 2 5 6 5 6 5 5 8 9 8 8 9 7 4 8 8 7 6 6 5 4 5 5 5 6 6 5 4 3 4 3 2 3 4 3 2 2 2 3 3 2 2 2
6 4 4 5 4 4 5 7 9 9 7 8 9 7 2 4 6 7 7 6 5 5 5 5 5 6 5 5 4 3 3 3 3 3 3 3 3 3 3 2 3 2 2 1
7 7 5 3 4 4 5 4 3 4 5 5 3 4 1 2 3 4 6 5 4 5 5 5 5 5 5 5 4 3 3 2 3 2 2 3 3 3 3 3 3 3 2 1
6 6 6 5 5 5 7 7 4 3 4 4 4 4 3 4 4 3 4 5 5 5 6 6 5 5 5 5 4 3 3 3 2 2 1 2 3 2 1 2 2 3 2 2
5 4 3 4 5 5 5 6 7 7 9 7 4 2 3 4 4 4 4 4 5 5 6 6 6 5 5 5 4 4 4 3 3 2 1 2 2 2 2 1 1 2 2 2
7 6 4 3 4 6 6 6 4 4 5 6 5 4 2 4 3 3 3 2 4 5 5 6 6 5 4 4 3 3 3 3 3 2 1 1 2 1 1 2 2 2 2 2
8 7 5 4 6 7 7 7 6 5 6 5 5 2 3 2 3 3 4 4 4 5 6 6 5 5 4 4 3 3 3 3 2 2 1 1 1 1 1 1 1 2 2 3
5 6 8 7 5 4 6 7 7 5 6 6 6 3 2 3 2 1 2 4 4 5 5 5 5 5 5 4 3 3 3 2 2 2 2 1 0 1 1 1 1 2 2 2
4 5 7 5 4 4 6 7 7 7 6 7 7 3 0 2 2 1 2 3 3 5 6 5 5 5 5 5 4 3 3 2 2 2 2 1 1 1 1 1 1 2 2 2
4 8 9 8 6 4 7 8 8 8 7 8 8 6 4 1 1 1 2 3 3 4 6 5 5 5 5 5 5 4 3 3 2 2 2 2 2 1 1 1 1 1 2 2
5 9 12 12 11 10 9 10 10 10 10 9 8 7 5 4 2 1 1 2 4 4 5 5 4 4 4 4 4 4 4 3 3 2 2 2 2 1 2 2 2 2 1 1
6 9 11 13 12 11 12 11 11 11 11 11 10 8 6 4 2 1 1 2 3 3 3 4 4 4 4 4 4 4 4 3 3 3 3 2 2 1 2 1 2 2 1 1
7 10 11 11 10 11 12 10 9 8 9 9 9 7 5 4 4 2 2 3 3 3 2 3 4 4 4 4 4 5 4 3 3 2 2 2 2 2 2 2 2 2 2 1
10 10 7 9 10 12 5 2 5 7 8 6 5 4 4 4 4 2 1 2 3 3 2 3 3 3 4 4 3 3 4 3 3 2 2 2 2 2 1 1 2 2 2 2
9 8 7 7 9 10 6 3 3 6 7 4 4 3 3 4 4 2 2 1 1 2 3 3 3 2 3 4 4 3 3 3 2 2 2 2 2 2 2 2 2 2 1 2
9 9 8 8 9 9 3 1 3 5 6 2 3 3 3 3 4 3 1 1 1 1 2 3 3 2 2 3 4 4 3 3 3 2 2 2 2 2 2 2 2 2 2 2
8 8 10 10 10 6 1 1 1 3 2 3 2 2 3 3 3 2 2 2 1 1 2 3 3 2 2 3 3 3 3 2 2 1 1 1 2 2 2 2 2 2 2 2
6 6 8 7 9 6 1 0 1 2 3 4 4 3 3 2 3 2 2 2 0 1 1 2 3 2 1 2 3 3 2 2 1 1 1 1 1 1 1 1 1 1 2 3
6 5 4 5 4 2 1 1 2 3 3 4 4 3 3 3 3 2 2 2 0 1 1 1 2 3 2 3 3 3 2 2 2 2 1 2 2 1 1 2 1 1 2 2
6 5 6 7 4 3 2 2 3 4 4 4 4 4 3 2 3 2 1 1 0 0 0 1 2 2 2 2 2 3 2 2 3 3 2 2 2 1 1 1 1 1 1 2
7 6 7 9 6 5 4 3 3 3 4 4 4 3 3 2 2 2 1 0 0 1 1 1 2 2 2 2 2 2 3 3 3 3 3 2 2 2 1 1 1 1 1 2
8 7 7 6 5 5 5 4 4 4 4 3 3 3 3 2 3 2 2 1 1 1 2 2 1 2 2 2 2 2 3 3 3 3 2 2 1 1 1 1 1 1 1 2
Wind_Direction
217 227 233 245 250 279 276 261 241 241 211 237 244 234 219 206 196 194 195 177 172 173 172 161 146 135 137 132 126 125 122 122 113 104 106 109 109 106 92 79 70 57 62 73
232 227 243 251 255 266 270 270 250 247 271 267 250 248 223 201 193 187 196 189 176 172 172 160 147 143 141 130 127 139 135 132 118 101 127 129 123 122 117 100 83 71 65 69
240 243 233 243 255 267 270 280 283 284 280 259 252 246 220 195 187 179 186 191 180 170 169 165 157 150 147 139 144 132 127 121 124 123 117 117 107 99 100 100 92 82 81 74
241 240 252 258 262 273 273 305 291 266 262 259 244 259 218 196 186 183 181 182 184 167 162 162 156 152 149 144 140 135 128 123 127 135 132 135 139 148 157 140 134 128 99 93
238 217 250 255 264 278 287 296 278 262 258 266 253 257 222 182 186 186 184 179 178 172 164 155 157 151 148 145 142 144 136 136 129 124 136 146 133 141 141 131 135 143 127 100
250 234 246 265 275 268 271 273 269 250 248 252 238 243 232 186 188 182 179 180 169 165 153 147 147 137 140 139 140 144 136 139 132 121 142 157 146 145 141 144 147 147 141 150
234 221 218 241 269 253 258 263 271 237 219 242 232 236 207 126 132 157 165 171 160 145 141 142 140 139 138 140 145 150 142 132 129 150 165 151 151 158 167 175 164 153 150 146
251 228 206 213 236 255 250 244 258 276 275 284 255 224 142 102 100 112 139 148 157 150 145 143 144 147 149 149 152 157 159 149 147 166 168 135 137 155 190 191 161 160 159 158
280 260 199 205 226 249 259 258 270 281 284 277 244 195 139 124 120 128 134 145 162 152 146 144 147 154 152 156 160 159 161 157 152 157 161 143 143 152 176 210 156 122 128 141
291 290 244 213 226 233 259 279 280 266 281 277 266 246 213 159 157 151 148 153 161 150 151 141 145 148 148 153 150 141 134 139 136 141 178 149 147 146 175 178 145 134 139 137
287 279 257 217 231 238 229 250 255 261 263 278 286 322 31 93 131 170 182 173 160 152 152 148 145 146 143 136 136 138 130 120 126 131 105 90 110 143 144 168 154 138 142 143
281 279 268 246 225 231 239 247 256 262 267 271 276 269 20 49 53 141 165 153 147 144 143 140 140 140 139 145 149 136 126 117 126 135 128 120 127 141 143 163 165 151 148 152
302 274 272 247 202 209 239 246 260 274 275 270 269 250 154 74 60 63 115 123 135 143 140 138 140 149 153 159 156 148 138 133 141 136 128 129 137 127 147 173 159 152 151 156
290 261 262 269 283 268 255 255 256 261 262 269 268 271 288 352 329 87 108 122 124 138 141 143 151 159 164 163 160 158 157 154 156 149 148 167 193 188 177 164 163 175 173 176
259 267 273 277 280 281 270 262 254 253 259 265 275 277 283 294 297 258 137 140 132 132 145 148 153 159 162 161 163 165 165 160 163 172 174 194 196 192 195 185 180 191 194 191
259 270 277 275 270 267 266 262 255 254 259 265 272 277 292 312 328 277 175 165 155 153 155 158 162 158 167 174 179 172 168 170 173 186 189 188 180 184 198 192 183 178 186 202
249 263 273 274 275 269 259 254 248 252 256 262 267 276 305 310 306 285 204 182 176 175 181 174 176 178 180 185 185 177 170 166 177 190 188 182 183 191 206 208 188 189 191 195
252 257 263 272 273 262 257 270 262 259 255 263 271 298 309 308 306 289 195 171 166 166 182 192 183 188 184 176 168 166 166 167 178 188 193 189 180 186 206 223 215 213 194 185
251 257 261 262 268 266 256 260 278 270 261 266 275 290 317 325 309 312 25 83 130 176 185 194 177 187 191 174 170 170 174 168 172 184 198 190 187 188 198 221 213 209 201 209
235 244 252 257 263 266 274 359 319 290 262 297 295 293 303 306 286 284 356 50 129 156 170 167 165 180 190 173 168 174 173 175 184 190 199 191 192 191 209 216 217 205 203 211
225 234 240 254 258 261 326 8 304 259 301 359 328 308 305 282 294 312 342 348 7 142 157 158 163 172 179 168 160 174 172 186 196 177 177 187 198 200 202 203 213 203 206 208
248 239 240 246 250 252 71 337 276 316 349 358 356 343 328 334 355 349 344 336 66 129 139 150 158 157 164 170 163 175 184 181 151 140 160 185 213 220 205 193 230 216 207 210
249 254 258 252 255 337 47 335 346 360 348 350 348 346 360 352 338 324 325 311 168 128 142 148 160 158 173 170 166 181 188 169 173 170 181 198 211 225 207 194 219 224 218 220
263 278 269 268 261 289 294 321 354 348 340 339 347 345 344 321 315 318 320 341 39 117 144 150 163 168 183 181 177 177 176 184 183 181 186 198 204 222 237 235 232 231 216 236
285 276 267 268 269 277 271 294 312 322 319 328 334 330 327 317 303 306 306 304 225 168 172 184 188 197 202 183 184 179 179 192 192 187 185 201 214 206 201 209 243 253 256 237
267 266 259 264 274 281 282 288 292 290 291 297 304 315 324 324 309 301 284 226 218 193 189 206 202 208 214 195 192 188 188 195 201 190 186 196 201 209 195 198 254 311 282 289
Height
1492 1494 1496 1494 1492 1492 1493 1495 1499 1497 1493 1497 1499 1500 1499 1500 1501 1503 1505 1506 1509 1511 1513 1514 1516 1517 1518 1519 1520 1520 1520 1521 1521 1522 1523 1523 1524 1524 1525 1526 1526 1527 1527 1527
1492 1494 1491 1490 1490 1490 1491 1495 1497 1496 1493 1495 1498 1498 1495 1496 1498 1500 1502 1504 1506 1508 1511 1513 1514 1515 1517 1517 1518 1519 1519 1520 1520 1521 1522 1523 1523 1524 1524 1525 1526 1526 1527 1527
1493 1491 1489 1490 1490 1492 1492 1495 1497 1498 1495 1493 1496 1499 1494 1493 1495 1498 1500 1502 1504 1506 1508 1510 1512 1513 1515 1516 1517 1518 1518 1519 1519 1520 1520 1521 1522 1523 1523 1524 1525 1526 1526 1527
1489 1488 1489 1490 1491 1492 1496 1491 1492 1495 1501 1501 1497 1508 1495 1490 1492 1494 1497 1500 1502 1504 1506 1508 1510 1511 1513 1514 1516 1516 1517 1518 1518 1518 1519 1520 1520 1521 1522 1523 1523 1525 1526 1527
1489 1488 1490 1492 1492 1491 1493 1490 1491 1493 1497 1500 1495 1500 1493 1486 1492 1492 1494 1497 1500 1502 1504 1506 1508 1509 1511 1512 1514 1515 1516 1516 1517 1517 1518 1519 1520 1520 1521 1522 1523 1524 1525 1526
1487 1487 1488 1489 1489 1490 1490 1491 1490 1489 1496 1506 1493 1497 1497 1487 1487 1488 1491 1495 1497 1500 1502 1504 1506 1508 1509 1511 1512 1513 1514 1515 1516 1516 1517 1518 1518 1519 1520 1521 1522 1523 1524 1525
1489 1486 1486 1488 1491 1490 1491 1499 1509 1508 1509 1503 1484 1490 1493 1481 1480 1483 1488 1492 1495 1498 1500 1503 1504 1506 1507 1509 1510 1512 1513 1514 1515 1515 1516 1516 1517 1518 1519 1520 1521 1522 1522 1523
1494 1493 1486 1486 1490 1494 1492 1495 1510 1518 1512 1500 1487 1491 1487 1479 1481 1483 1487 1490 1494 1496 1498 1501 1503 1504 1506 1507 1509 1510 1511 1512 1513 1514 1514 1515 1516 1516 1518 1519 1520 1520 1521 1522
1492 1491 1482 1483 1485 1488 1493 1493 1490 1500 1499 1501 1491 1484 1482 1479 1481 1483 1486 1489 1492 1494 1496 1499 1501 1503 1504 1505 1507 1508 1509 1510 1511 1512 1513 1513 1514 1515 1516 1517 1518 1519 1519 1520
1488 1494 1485 1484 1485 1486 1489 1490 1495 1501 1510 1510 1495 1490 1490 1484 1483 1484 1486 1488 1490 1493 1495 1497 1499 1501 1502 1504 1506 1507 1508 1508 1509 1510 1511 1512 1512 1513 1514 1515 1515 1516 1517 1518
1487 1493 1489 1486 1489 1489 1490 1492 1493 1497 1498 1508 1508 1500 1479 1480 1481 1483 1485 1487 1489 1491 1493 1495 1497 1499 1501 1502 1504 1505 1505 1506 1507 1508 1509 1509 1510 1511 1512 1513 1514 1515 1516 1517
1488 1491 1493 1487 1482 1482 1485 1489 1492 1503 1501 1496 1502 1501 1479 1480 1480 1481 1483 1485 1487 1489 1492 1494 1496 1498 1499 1501 1502 1503 1503 1504 1505 1506 1507 1507 1508 1509 1510 1511 1512 1513 1514 1515
1492 1494 1498 1494 1491 1486 1487 1486 1487 1490 1495 1497 1502 1498 1480 1480 1481 1482 1483 1484 1486 1488 1490 1492 1494 1496 1498 1499 1500 1501 1502 1503 1504 1504 1505 1505 1506 1507 1508 1509 1510 1511 1512 1513
1492 1492 1496 1500 1493 1487 1489 1487 1486 1490 1497 1497 1493 1491 1483 1481 1481 1482 1483 1484 1485 1486 1488 1491 1492 1494 1496 1497 1498 1500 1500 1501 1502 1502 1503 1503 1504 1504 1505 1506 1507 1508 1510 1511
1490 1492 1488 1484 1481 1481 1483 1484 1484 1487 1487 1492 1488 1486 1482 1481 1481 1481 1482 1483 1484 1486 1487 1489 1491 1493 1494 1496 1497 1498 1499 1499 1500 1500 1500 1501 1501 1502 1503 1504 1505 1506 1507 1508
1488 1490 1487 1485 1479 1479 1481 1480 1480 1482 1482 1482 1483 1483 1478 1479 1480 1481 1482 1483 1484 1485 1486 1487 1489 1490 1492 1494 1495 1496 1496 1497 1498 1498 1498 1499 1499 1500 1501 1501 1502 1503 1504 1505
1487 1489 1490 1488 1479 1479 1483 1476 1476 1478 1477 1479 1482 1481 1478 1478 1479 1480 1480 1481 1482 1484 1485 1486 1487 1488 1489 1491 1492 1493 1493 1494 1495 1495 1496 1496 1496 1497 1498 1498 1499 1500 1501 1502
1485 1486 1487 1486 1485 1492 1479 1469 1470 1473 1473 1473 1475 1476 1476 1477 1477 1478 1478 1479 1480 1482 1483 1484 1484 1486 1487 1488 1489 1490 1491 1491 1492 1493 1493 1493 1494 1494 1495 1495 1496 1496 1497 1498
1480 1483 1487 1488 1489 1481 1474 1470 1471 1473 1473 1472 1473 1474 1475 1476 1476 1476 1477 1477 1478 1480 1480 1481 1482 1483 1484 1485 1486 1487 1488 1489 1490 1490 1490 1490 1491 1491 1491 1491 1492 1493 1494 1494
1477 1479 1485 1485 1490 1488 1476 1470 1469 1472 1475 1471 1472 1473 1474 1475 1478 1477 1476 1476 1476 1477 1478 1479 1480 1481 1482 1483 1484 1485 1486 1486 1487 1487 1488 1488 1488 1488 1488 1488 1489 1489 1490 1491
1479 1480 1483 1484 1483 1476 1471 1470 1470 1480 1479 1471 1471 1472 1473 1474 1475 1475 1474 1474 1474 1475 1475 1476 1477 1478 1479 1480 1481 1482 1483 1483 1484 1485 1485 1485 1485 1486 1485 1485 1486 1486 1487 1488
1476 1479 1479 1479 1483 1481 1470 1469 1473 1475 1472 1471 1471 1472 1472 1472 1473 1473 1473 1472 1472 1472 1473 1474 1474 1475 1477 1478 1478 1479 1480 1481 1481 1482 1482 1482 1483 1483 1482 1482 1482 1483 1483 1484
1471 1472 1474 1475 1475 1470 1470 1470 1471 1471 1471 1471 1471 1471 1471 1471 1471 1472 1472 1471 1471 1471 1471 1471 1472 1472 1474 1474 1475 1476 1477 1478 1478 1479 1479 1479 1480 1480 1479 1479 1479 1479 1480 1480
1468 1468 1469 1469 1467 1468 1469 1469 1470 1470 1471 1470 1470 1470 1470 1470 1470 1470 1470 1470 1469 1469 1469 1469 1470 1470 1471 1472 1473 1474 1474 1475 1475 1476 1476 1476 1477 1477 1476 1476 1476 1476 1476 1476
1470 1468 1468 1468 1467 1467 1467 1468 1469 1469 1469 1469 1469 1469 1469 1468 1468 1468 1468 1468 1468 1468 1468 1468 1468 1468 1469 1469 1470 1471 1472 1472 1473 1473 1474 1474 1474 1474 1474 1473 1474 1473 1473 1473
1469 1468 1469 1468 1466 1466 1466 1466 1466 1467 1467 1467 1467 1467 1467 1467 1466 1466 1466 1466 1466 1466 1466 1466 1466 1466 1466 1467 1468 1468 1469 1469 1470 1470 1471 1471 1471 1471 1471 1470 1470 1470 1470 1470